Weather in Zanjan

Iran     36°40′52″N   48°29′31″E
temp.,
°C
wind,
m/s
gust,
m/s
humid.,
%
clouds,
%
prec.,
mm/h
press.,
hPa
HPBL,
m
24 may, tue
tue2401:30+10wsw69460 0.0 1006702
04:30+9ssw34530 0.0 1007197
07:30+10s22530 0.0 1008294
10:30+14wsw35380 0.0 10071309
13:30+19wsw810255 0.0 10052609
16:30+21wsw10132294 0.0 10043744
19:30+18wsw11112817 0.0 10061846
22:30+14wsw811420 0.0 1010706
25 may, wed
wed2501:30+13wsw812470 0.0 1011911
04:30+11wsw712490 0.0 1012867
07:30+12wsw611481 0.0 10131209
10:30+16w911325 0.0 10122403
13:30+20w7102344 0.0 10113203
16:30+21wsw81021100 0.0 10093792
19:30+18wsw792852 0.0 10111812
22:30+13wsw27433 0.1 1015338
26 may, thu
thu2601:30+10e255913 0.0 1017326
04:30+6ene44776 0.0 1018138
07:30+6ne337619 0.0 1020294
10:30+10ne225613 0.1 1019792
13:30+15nnw23382 0.0 10171585
16:30+17n34332 0.0 10151779
19:30+11ene556413 0.0 1018403
22:30+8ene447611 0.0 1020177
27 may, fri
fri2701:30+7ne33660 0.0 1020131
04:30+7ne22660 0.0 1020103
07:30+7ene33660 0.0 1021231
10:30+13ene33420 0.0 1019734
13:30+17ene43300 0.0 10161235
16:30+18ene64320 0.0 10141036
19:30+14ene55560 0.0 1016360
22:30+9ene558136 0.0 1019217
28 may, sat
sat2801:30+9ene34777 0.0 1019161
04:30+8ene33721 0.0 1019116
07:30+10ne23600 0.0 1019182
10:30+16ene34431 0.1 1016682
13:30+20ene44360 0.3 10141560
16:30+20ene653810 0.3 10121079
19:30+14nne2264100 3.7 1016250
22:30+14ene227133 3.7 1017107